[[{"header":{"parameterUnit":"m.s-1","parameterCategory":2,"la1":30.2991,"la2":30.254,"lo1":-89.0895,"lo2":-89.0444,"dy":0.0017,"dx":0.0017,"nx":28,"ny":28,"refTime":"2023-08-16T09:00:00:Z","depth":"0","parameterNumber":2,"parameterNumberName":"U-component_of_CURRENTS"},"data":[0,0,0,0,0,0,0,0,0,0,0,0,0,0,0,0,0,0,0,0,0,0,0,0,0,0,0,0,0,0,0,0,0,0,0,0,0,0,0,0,0,0,0,0,0,0,0,0,0,0,0,0,0,0,0,0,0,0,0.3413,0.3413,0,0.3389,0.3388,0.3388,0.3348,0.3348,0.3347,0.3347,0.3305,0.3305,0.3304,0,0,0,0,0,0,0,0,0,0,0,0,0,0.3424,0.3424,0.3413,0.3413,0.3413,0.3389,0.3388,0.3387,0.3348,0.3348,0.3347,0.3347,0.3305,0.3305,0.3304,0,0,0,0,0,0,0,0,0,0,0,0,0,0.3409,0.3424,0.3413,0.3392,0.339,0.3389,0.3388,0.3387,0.3349,0.3348,0.3347,0.3346,0.3306,0.3305,0.3304,0.3312,0,0,0.3301,0.33,0,0,0,0,0,0,0,0,0.341,0.3408,0.3395,0.3394,0.3392,0.3373,0.3377,0.3362,0.3349,0.3362,0.3347,0.3346,0.3328,0.3326,0.3319,0.331,0.3308,0.3301,0.33,0.33,0.3299,0,0,0,0,0,0,0,0.3411,0.3409,0.3401,0.3396,0.3393,0.3384,0.338,0.3374,0.3347,0.3361,0.3358,0.336,0.3327,0.332,0.3318,0.3308,0.3301,0.33,0.3299,0.3299,0.3302,0.3303,0,0,0,0,0,0,0.342,0.341,0.3402,0.34,0.3402,0.3384,0.3381,0.3378,0.3348,0.3343,0.336,0.3358,0.3322,0.3319,0.3316,0.328,0.33,0.3299,0.3298,0.3302,0.3303,0.3303,0,0,0,0,0,0,0.342,0.3419,0.3403,0.3407,0.3404,0.3385,0.3382,0.3378,0.3365,0.3348,0.3343,0.3352,0.3322,0.3318,0.3301,0.328,0.3298,0.3297,0.3301,0.3302,0.3303,0.3236,0,0,0,0,0,0,0.342,0.3419,0.3417,0.3407,0.3405,0.3388,0.3383,0.3378,0.3368,0.3365,0.3339,0.3335,0.3321,0.3302,0.33,0.3279,0.3297,0.33,0.3301,0.3303,0.3237,0.3235,0.3232,0,0,0,0,0,0.3421,0.3414,0.3417,0.3416,0.3403,0.3388,0.3384,0.3367,0.3369,0.3355,0.3343,0.3335,0.3309,0.3301,0.3298,0.3277,0.3299,0.3301,0.3303,0.3239,0.3235,0.3232,0,0,0,0,0,0,0.3412,0.341,0.3413,0.3405,0.3395,0.3382,0.337,0.3369,0.335,0.3347,0.3334,0.3328,0.3311,0.3315,0.3307,0.3289,0.3308,0.3309,0.326,0.3257,0.3255,0.3239,0.3296,0,0,0,0,0,0.3415,0.3407,0.3406,0.3396,0.3394,0.3386,0.3379,0.3371,0.3357,0.3348,0.3329,0.3323,0.3318,0.3303,0.3302,0.3282,0.3311,0.3275,0.3273,0.327,0.326,0.3307,0.3307,0.3308,0.3308,0.3308,0,0,0.3403,0.3406,0.3398,0.3394,0.3386,0.336,0.3378,0.3365,0.3331,0.3348,0.3297,0.3314,0.3317,0.3293,0.3286,0.3287,0.3285,0.3272,0.3269,0.326,0.3308,0.3308,0.3307,0.3309,0.3309,0.3309,0,0,0.3376,0.3386,0.3368,0.3358,0.3353,0.3345,0.3343,0.3329,0.331,0.328,0.3291,0.3294,0.3272,0.3265,0.3263,0.3252,0.3278,0.3263,0.3217,0.3263,0.3262,0.3262,0.3291,0.3294,0.325,0.325,0.325,0,0.3363,0.3338,0.3359,0.3337,0.3313,0.3335,0.3295,0.3283,0.3261,0.3243,0.3254,0.3249,0.3253,0.3229,0.3227,0.324,0.3275,0.3218,0.3256,0.3257,0.3258,0.3288,0.3292,0.3247,0.3248,0.3248,0.3248,0,0.3318,0.3292,0.328,0.3253,0.3237,0.3208,0.3198,0.3179,0.3173,0.3164,0.3149,0.3169,0.3169,0.3177,0.3191,0.32,0.3225,0.3254,0.3255,0.3253,0.3286,0.3291,0.3243,0.3244,0.3245,0.3246,0,0,0.3276,0.3251,0.3239,0.3205,0.3185,0.3161,0.3118,0.308,0.3052,0.3054,0.302,0.3033,0.3076,0.308,0.3115,0.3146,0.3185,0.3199,0.3203,0.3211,0.3283,0.3254,0.3257,0.3228,0.3228,0.3229,0.3298,0,0.3219,0.3159,0.316,0.3077,0.3035,0.3037,0.2992,0.297,0.2965,0.2945,0.2982,0.2981,0.303,0.3047,0.3085,0.3167,0.3199,0.3163,0.3298,0.3301,0.3262,0.3262,0.3182,0.3233,0.3304,0.3305,0.3306,0,0.3151,0.3119,0.3042,0.2976,0.2959,0.2926,0.2865,0.2833,0.283,0.2833,0.2856,0.2901,0.2944,0.3001,0.3117,0.3099,0.3185,0.3246,0.3251,0.3249,0.3282,0.3251,0.3241,0.3091,0.3315,0.3314,0.3313,0,0.3084,0.3018,0.2952,0.2928,0.2877,0.2844,0.2822,0.2802,0.277,0.2785,0.2783,0.2844,0.2885,0.2996,0.3125,0.3136,0.326,0.3292,0.3337,0.3336,0.3304,0.3298,0.3148,0.3377,0.3377,0.3376,0.3376,0,0.3004,0.2937,0.2922,0.288,0.2799,0.2796,0.2726,0.2713,0.2711,0.2682,0.2743,0.275,0.2894,0.2979,0.3104,0.3228,0.3249,0.3323,0.3351,0.3278,0.327,0.3169,0.3051,0.3379,0.3378,0.3378,0.3377,0,0.292,0.2911,0.2826,0.2782,0.2764,0.2712,0.2667,0.2629,0.2643,0.2616,0.2626,0.2692,0.2803,0.2932,0.3108,0.3191,0.3218,0.336,0.3251,0.3265,0.3154,0.3036,0.2897,0.2861,0.3414,0.3414,0.3413,0,0.2865,0.2819,0.2756,0.2709,0.2686,0.2626,0.2586,0.2591,0.2567,0.2581,0.2571,0.2657,0.2716,0.293,0.311,0.3293,0.318,0.3291,0.329,0.3116,0.3007,0.2918,0.2892,0.3226,0.3225,0.3223,0.3222,0,0.2748,0.2738,0.2682,0.2604,0.2557,0.2492,0.2455,0.2437,0.2454,0.245,0.2476,0.253,0.2733,0.2861,0.3072,0.3196,0.3087,0.3266,0.3119,0.2856,0.2716,0.2706,0.32,0.3209,0.321,0.3211,0.3212,0.3213,0.2653,0.2602,0.2547,0.2468,0.2417,0.2365,0.2304,0.2309,0.2285,0.2273,0.2369,0.242,0.2604,0.2902,0.2987,0.3033,0.3035,0.2976,0.2855,0.2792,0.2703,0.315,0.3168,0.3169,0.317,0.3171,0.3172,0,0.2505,0.2475,0.2404,0.2314,0.2235,0.2247,0.2203,0.2156,0.2134,0.2173,0.2195,0.2334,0.2452,0.2613,0.2747,0.2636,0.2644,0.2512,0.2348,0.236,0.2794,0.2732,0.2613,0.2613,0.2613,0.2613,0.2613,0.2613,0.2421,0.2327,0.2311,0.216,0.2102,0.1988,0.1957,0.1931,0.1942,0.1933,0.1979,0.2076,0.2228,0.2206,0.2154,0.2161,0.1983,0.1883,0.1877,0.2118,0.2153,0.2185,0.2101,0.1851,0.185,0.1485,0.148,0.1477]},{"header":{"parameterUnit":"m.s-1","parameterCategory":2,"la1":30.2991,"la2":30.254,"lo1":-89.0895,"lo2":-89.0444,"dy":0.0017,"dx":0.0017,"nx":28,"ny":28,"refTime":"2023-08-16T09:00:00:Z","depth":"0","parameterNumber":3,"parameterNumberName":"V-component_of_CURRENTS"},"data":[0,0,0,0,0,0,0,0,0,0,0,0,0,0,0,0,0,0,0,0,0,0,0,0,0,0,0,0,0,0,0,0,0,0,0,0,0,0,0,0,0,0,0,0,0,0,0,0,0,0,0,0,0,0,0,0,0,0,-0.0472,-0.047,0,-0.0325,-0.0324,-0.0322,-0.0267,-0.0268,-0.0268,-0.0269,-0.0103,-0.0099,-0.0094,0,0,0,0,0,0,0,0,0,0,0,0,0,-0.061,-0.0608,-0.0472,-0.047,-0.0469,-0.0326,-0.0324,-0.0321,-0.0267,-0.0268,-0.0269,-0.0269,-0.0105,-0.0099,-0.0093,0,0,0,0,0,0,0,0,0,0,0,0,0,-0.0515,-0.0608,-0.0472,-0.0425,-0.042,-0.0326,-0.0323,-0.0321,-0.0267,-0.0268,-0.0269,-0.027,-0.0107,-0.01,-0.0092,-0.0029,0,0,-0.007,-0.0067,0,0,0,0,0,0,0,0,-0.052,-0.0509,-0.0434,-0.0428,-0.0422,-0.0317,-0.0311,-0.0223,-0.0267,-0.0324,-0.0269,-0.027,-0.0173,-0.016,-0.0129,-0.0021,-0.0014,-0.0069,-0.0065,-0.0061,-0.0059,0,0,0,0,0,0,0,-0.0527,-0.0515,-0.0413,-0.0432,-0.0425,-0.0379,-0.0367,-0.0294,-0.0244,-0.0319,-0.0315,-0.03,-0.017,-0.0137,-0.0125,-0.0012,-0.0069,-0.0063,-0.0058,-0.0055,0.0168,0.0169,0,0,0,0,0,0,-0.0551,-0.0521,-0.0417,-0.0408,-0.0475,-0.0376,-0.0363,-0.0349,-0.0245,-0.0231,-0.03,-0.0298,-0.0149,-0.0134,-0.0119,-0.0039,-0.0062,-0.0055,-0.005,0.0167,0.0168,0.017,0,0,0,0,0,0,-0.0555,-0.0543,-0.0423,-0.0463,-0.0444,-0.0374,-0.0357,-0.0345,-0.0314,-0.0231,-0.0216,-0.0282,-0.0149,-0.0129,-0.0046,-0.0032,-0.0051,-0.0044,0.0165,0.0167,0.0169,0.0122,0,0,0,0,0,0,-0.0559,-0.0545,-0.0546,-0.0464,-0.0443,-0.0376,-0.0356,-0.0342,-0.0304,-0.0301,-0.0211,-0.0196,-0.0148,-0.0058,-0.0039,-0.0023,-0.0039,0.0163,0.0166,0.0168,0.0121,0.0122,0.0123,0,0,0,0,0,-0.0565,-0.0572,-0.0547,-0.0534,-0.0445,-0.0375,-0.036,-0.0312,-0.0303,-0.0288,-0.022,-0.0199,-0.0027,-0.005,-0.0028,-0.001,0.0162,0.0165,0.0168,0.0121,0.0122,0.0123,0,0,0,0,0,0,-0.0643,-0.0564,-0.0536,-0.0521,-0.0454,-0.0367,-0.0356,-0.0313,-0.0246,-0.0247,-0.0171,-0.015,-0.0076,-0.0028,-0.0055,0.0064,0.0068,0.0075,0.0025,0.0026,0.0027,0.0,-0.0032,0,0,0,0,0,-0.0656,-0.0637,-0.055,-0.0539,-0.0511,-0.0431,-0.0398,-0.0358,-0.0287,-0.026,-0.019,-0.0115,-0.0042,-0.0,0.0069,0.0143,0.015,0.0168,0.0169,0.0168,0.0164,0.0186,0.0186,0.0181,0.0181,0.0181,0,0,-0.0685,-0.064,-0.063,-0.0554,-0.0504,-0.0449,-0.0414,-0.0369,-0.0318,-0.025,-0.0171,-0.0111,-0.0022,0.0055,0.0092,0.0095,0.0173,0.0173,0.0172,0.0167,0.0189,0.0189,0.0189,0.0183,0.0183,0.0182,0,0,-0.0721,-0.0691,-0.0675,-0.0617,-0.054,-0.0481,-0.0469,-0.0373,-0.0331,-0.0241,-0.0185,-0.0119,0.0004,0.0064,0.0111,0.016,0.0172,0.0186,0.0174,0.0195,0.0195,0.0194,0.0187,0.0186,0.019,0.019,0.019,0,-0.0759,-0.0713,-0.0661,-0.062,-0.057,-0.0496,-0.0449,-0.0391,-0.0277,-0.0232,-0.0227,-0.0054,0.0006,0.0105,0.0118,0.0158,0.0163,0.0158,0.0191,0.0192,0.0192,0.0184,0.0184,0.0188,0.0188,0.0188,0.0188,0,-0.0757,-0.0717,-0.0708,-0.0621,-0.0568,-0.052,-0.0426,-0.037,-0.0313,-0.0243,-0.0144,-0.0062,0.0037,0.0066,0.0109,0.016,0.0158,0.018,0.0176,0.0189,0.0181,0.0181,0.0185,0.0186,0.0186,0.0187,0,0,-0.0827,-0.0725,-0.0716,-0.066,-0.0558,-0.0503,-0.0435,-0.0328,-0.027,-0.019,-0.0113,-0.0011,0.002,0.0075,0.0131,0.0149,0.0146,0.0162,0.0164,0.0129,0.0169,0.0148,0.0146,0.017,0.0171,0.0171,0.0154,0,-0.0826,-0.0756,-0.07,-0.0612,-0.0552,-0.0468,-0.0398,-0.0304,-0.0226,-0.0139,-0.0072,0.0017,0.0029,0.0075,0.0092,0.0154,0.0149,0.0147,0.0184,0.0185,0.0144,0.0147,0.0185,0.0173,0.0155,0.0155,0.0155,0,-0.0811,-0.076,-0.0688,-0.0566,-0.0535,-0.048,-0.0348,-0.0276,-0.016,-0.0106,-0.0036,0.0023,0.0086,0.008,0.0136,0.0135,0.0136,0.0156,0.0157,0.0154,0.0165,0.0165,0.0175,0.0168,0.0156,0.0156,0.0156,0,-0.0828,-0.0733,-0.0673,-0.0632,-0.0503,-0.0457,-0.0387,-0.0268,-0.0192,-0.0091,-0.0038,0.0036,0.0087,0.0102,0.0141,0.0139,0.0181,0.0189,0.0159,0.0156,0.0205,0.0206,0.0194,0.0189,0.0189,0.0189,0.0189,0,-0.0808,-0.0746,-0.068,-0.0634,-0.0549,-0.0468,-0.0367,-0.0288,-0.0185,-0.0093,-0.0032,0.0042,0.0093,0.0136,0.0141,0.0154,0.0176,0.0147,0.0154,0.0189,0.0189,0.02,0.0174,0.0189,0.0189,0.0189,0.0189,0,-0.0785,-0.0752,-0.0669,-0.0576,-0.0544,-0.048,-0.0353,-0.0277,-0.0198,-0.0085,-0.0056,0.005,0.0106,0.0139,0.0179,0.0162,0.0171,0.0162,0.0182,0.0191,0.0142,0.0112,0.0075,0.0116,0.0119,0.0119,0.0118,0,-0.0748,-0.0714,-0.0637,-0.0592,-0.0543,-0.0452,-0.0378,-0.0285,-0.0208,-0.007,-0.0016,0.0062,0.0144,0.0181,0.0179,0.017,0.0162,0.0162,0.0161,0.0134,0.0107,0.008,0.0117,0.0203,0.0203,0.0204,0.0204,0,-0.0667,-0.0663,-0.0603,-0.0541,-0.0476,-0.0389,-0.0293,-0.0243,-0.013,-0.0048,0.0063,0.0129,0.0178,0.0217,0.0193,0.0185,0.0165,0.0162,0.0153,0.0176,0.0131,0.0177,0.0194,0.0206,0.0205,0.0205,0.0205,0.0205,-0.0599,-0.0563,-0.052,-0.0453,-0.0393,-0.0321,-0.0258,-0.017,-0.0066,0.0057,0.0103,0.0208,0.0243,0.0237,0.0212,0.0182,0.016,0.017,0.0135,0.0109,0.0151,0.0143,0.0151,0.0151,0.015,0.015,0.015,0,-0.0491,-0.0473,-0.042,-0.0353,-0.03,-0.0283,-0.0186,-0.0137,-0.0036,0.0071,0.0159,0.0267,0.0298,0.0294,0.0251,0.0184,0.0193,0.015,0.0149,0.0192,0.0214,0.0222,0.0225,0.0225,0.0225,0.0225,0.0225,0.0225,-0.0425,-0.0368,-0.0367,-0.0279,-0.0243,-0.0187,-0.0146,-0.0086,-0.0016,0.0109,0.0204,0.0274,0.0342,0.0247,0.0185,0.0163,0.0167,0.0106,0.0113,0.0142,0.0142,0.0143,0.0147,0.0134,0.0134,0.0157,0.0157,0.0156]}],[{"header":{"parameterUnit":"m.s-1","parameterCategory":2,"la1":30.2991,"la2":30.254,"lo1":-89.0895,"lo2":-89.0444,"dy":0.0017,"dx":0.0017,"nx":28,"ny":28,"refTime":"2023-08-16T09:00:00:Z","depth":"2","parameterNumber":2,"parameterNumberName":"U-component_of_CURRENTS"},"data":[0,0,0,0,0,0,0,0,0,0,0,0,0,0,0,0,0,0,0,0,0,0,0,0,0,0,0,0,0,0,0,0,0,0,0,0,0,0,0,0,0,0,0,0,0,0,0,0,0,0,0,0,0,0,0,0,0,0,0.1321,0.1321,0,0.1293,0.1292,0.1292,0.1305,0.1306,0.1307,0.1307,0.1438,0.1441,0.1444,0,0,0,0,0,0,0,0,0,0,0,0,0,0.1402,0.1401,0.1321,0.1321,0.132,0.1293,0.1292,0.1292,0.1305,0.1306,0.1307,0.1308,0.1438,0.1441,0.1444,0,0,0,0,0,0,0,0,0,0,0,0,0,0.137,0.14,0.1321,0.1323,0.1323,0.1293,0.1292,0.1292,0.1305,0.1306,0.1307,0.1308,0.1436,0.1441,0.1445,0.145,0,0,0.1458,0.146,0,0,0,0,0,0,0,0,0.1372,0.1367,0.1323,0.1323,0.1323,0.1303,0.1369,0.1353,0.1305,0.1312,0.1307,0.1308,0.1407,0.1414,0.1404,0.1456,0.1462,0.1458,0.1461,0.1463,0.1464,0,0,0,0,0,0,0,0.1374,0.1368,0.131,0.1323,0.1323,0.1331,0.1328,0.1365,0.1357,0.1311,0.1312,0.1309,0.1408,0.14,0.1408,0.1464,0.1458,0.1462,0.1464,0.1466,0.1647,0.165,0,0,0,0,0,0,0.1375,0.137,0.1311,0.1309,0.135,0.1329,0.1325,0.1309,0.1353,0.136,0.1308,0.1309,0.1392,0.1403,0.1413,0.1535,0.1463,0.1467,0.1469,0.1645,0.1648,0.165,0,0,0,0,0,0,0.1376,0.1369,0.1312,0.134,0.1333,0.1326,0.1308,0.1308,0.1341,0.1349,0.1358,0.1347,0.1393,0.1407,0.1478,0.1537,0.1468,0.1472,0.1643,0.1646,0.1649,0.1709,0,0,0,0,0,0,0.1378,0.1369,0.1389,0.1339,0.1332,0.1326,0.1307,0.1306,0.1334,0.1337,0.1385,0.1395,0.1395,0.1471,0.1482,0.1541,0.1476,0.164,0.1644,0.1648,0.1704,0.1714,0.1722,0,0,0,0,0,0.1381,0.1393,0.139,0.1385,0.1348,0.1327,0.1325,0.1323,0.1336,0.1357,0.1387,0.1396,0.1506,0.1476,0.1488,0.155,0.1638,0.1643,0.1648,0.17,0.1712,0.1722,0,0,0,0,0,0,0.1463,0.1393,0.139,0.1388,0.1376,0.133,0.1355,0.1351,0.1386,0.1411,0.1418,0.1431,0.1516,0.1525,0.1492,0.1616,0.1577,0.1585,0.1613,0.1624,0.1633,0.1614,0.1479,0,0,0,0,0,0.1482,0.1461,0.1416,0.1425,0.1421,0.1399,0.1403,0.14,0.1407,0.1424,0.1454,0.1496,0.1538,0.1575,0.161,0.1678,0.1688,0.1728,0.1737,0.1745,0.1739,0.1801,0.1815,0.1667,0.1667,0.1667,0,0,0.1516,0.148,0.1472,0.144,0.1432,0.1426,0.1406,0.1422,0.1435,0.1437,0.1498,0.1535,0.1563,0.1632,0.1673,0.1654,0.1798,0.1751,0.1758,0.1747,0.1808,0.1822,0.1835,0.1671,0.167,0.1669,0,0,0.1553,0.1544,0.1533,0.1521,0.1511,0.1489,0.1504,0.1489,0.1509,0.1557,0.1567,0.1632,0.1698,0.172,0.174,0.1824,0.1842,0.1858,0.1894,0.1956,0.1968,0.1979,0.2025,0.204,0.1865,0.1865,0.1865,0,0.1613,0.1574,0.154,0.1532,0.1528,0.1521,0.1525,0.1536,0.1555,0.1577,0.1596,0.1695,0.1732,0.1796,0.1828,0.1846,0.188,0.1847,0.1967,0.1977,0.1987,0.2032,0.2047,0.1868,0.1868,0.1867,0.1867,0,0.1615,0.1611,0.1613,0.1583,0.1583,0.1592,0.1582,0.1617,0.1648,0.1653,0.1743,0.1786,0.1841,0.1878,0.1881,0.1977,0.1979,0.1969,0.1933,0.2006,0.2049,0.2063,0.1873,0.1872,0.1871,0.187,0,0,0.1683,0.1622,0.1633,0.1617,0.161,0.16,0.164,0.1652,0.1683,0.1744,0.1789,0.188,0.1913,0.1937,0.1969,0.2026,0.2139,0.2038,0.204,0.2074,0.2281,0.2151,0.2154,0.2161,0.2163,0.2165,0.2287,0,0.1707,0.168,0.1652,0.1656,0.1638,0.1643,0.1668,0.1694,0.1731,0.1781,0.1845,0.1909,0.1932,0.1981,0.2046,0.2112,0.2179,0.2106,0.2213,0.2216,0.2083,0.2166,0.1899,0.1974,0.2301,0.2304,0.2305,0,0.1718,0.169,0.1686,0.1655,0.1655,0.1677,0.1707,0.1729,0.1791,0.1827,0.1901,0.1942,0.2044,0.2051,0.2206,0.2166,0.2234,0.2279,0.2285,0.2144,0.2111,0.1953,0.1987,0.2329,0.2327,0.2326,0.2324,0,0.1739,0.1716,0.1708,0.1701,0.1678,0.1709,0.1722,0.1768,0.1784,0.1871,0.1901,0.201,0.2077,0.2183,0.228,0.2266,0.2432,0.2418,0.2362,0.2353,0.2132,0.2098,0.253,0.253,0.2529,0.2529,0.2529,0,0.1746,0.1747,0.1727,0.1721,0.1735,0.1732,0.177,0.1799,0.1846,0.1868,0.194,0.198,0.2119,0.2213,0.2303,0.2372,0.246,0.2376,0.2379,0.2146,0.2114,0.2416,0.2401,0.2533,0.2532,0.2532,0.2531,0,0.1766,0.1751,0.1735,0.1731,0.174,0.1762,0.1779,0.1795,0.185,0.1885,0.1915,0.1994,0.2121,0.2233,0.2398,0.2381,0.2471,0.2474,0.2178,0.2142,0.2348,0.2335,0.2424,0.2421,0.2418,0.2415,0.2413,0,0.176,0.1754,0.175,0.1749,0.176,0.1782,0.1789,0.1814,0.1818,0.1881,0.189,0.201,0.2071,0.2231,0.2236,0.2338,0.2455,0.2119,0.2025,0.2345,0.234,0.2332,0.2324,0.1778,0.1771,0.1765,0.1761,0,0.175,0.1769,0.1758,0.1756,0.1768,0.1748,0.1765,0.1758,0.1784,0.1813,0.1859,0.1917,0.2001,0.1941,0.2012,0.2033,0.2072,0.1999,0.244,0.1824,0.1739,0.1733,0.1746,0.1709,0.1714,0.1718,0.1721,0.1723,0.1763,0.176,0.1756,0.1757,0.1749,0.1722,0.1705,0.1703,0.1703,0.1704,0.1772,0.1737,0.1679,0.1637,0.1664,0.1661,0.1798,0.1691,0.1708,0.1732,0.1613,0.1525,0.1433,0.1436,0.1439,0.1442,0.1444,0,0.1755,0.176,0.1747,0.1725,0.169,0.1714,0.1679,0.1631,0.1617,0.1563,0.1587,0.1307,0.1251,0.1285,0.1171,0.1177,0.1188,0.116,0.1131,0.1177,0.122,0.1077,0.0755,0.0755,0.0754,0.0754,0,0,0.175,0.1738,0.1725,0.1671,0.1668,0.161,0.1593,0.153,0.144,0.1272,0.1143,0.1153,0.1114,0.0866,0.0856,0.0802,0.1003,0.0776,0.1299,0.1302,0.1345,0.1465,0.1287,0,0,0,0,0]},{"header":{"parameterUnit":"m.s-1","parameterCategory":2,"la1":30.2991,"la2":30.254,"lo1":-89.0895,"lo2":-89.0444,"dy":0.0017,"dx":0.0017,"nx":28,"ny":28,"refTime":"2023-08-16T09:00:00:Z","depth":"2","parameterNumber":3,"parameterNumberName":"V-component_of_CURRENTS"},"data":[0,0,0,0,0,0,0,0,0,0,0,0,0,0,0,0,0,0,0,0,0,0,0,0,0,0,0,0,0,0,0,0,0,0,0,0,0,0,0,0,0,0,0,0,0,0,0,0,0,0,0,0,0,0,0,0,0,0,-0.0375,-0.0375,0,-0.0393,-0.0393,-0.0393,-0.0436,-0.0437,-0.0438,-0.0439,-0.0469,-0.0468,-0.0468,0,0,0,0,0,0,0,0,0,0,0,0,0,-0.0339,-0.0339,-0.0375,-0.0376,-0.0376,-0.0393,-0.0393,-0.0393,-0.0435,-0.0437,-0.0438,-0.0439,-0.0469,-0.0468,-0.0468,0,0,0,0,0,0,0,0,0,0,0,0,0,-0.0353,-0.0339,-0.0375,-0.0401,-0.0404,-0.0393,-0.0393,-0.0393,-0.0435,-0.0437,-0.0438,-0.044,-0.0469,-0.0468,-0.0468,-0.0432,0,0,-0.0467,-0.0467,0,0,0,0,0,0,0,0,-0.0352,-0.0354,-0.0397,-0.0399,-0.0402,-0.0416,-0.0391,-0.0408,-0.0435,-0.0421,-0.0439,-0.0441,-0.0452,-0.0453,-0.0449,-0.0434,-0.0435,-0.0467,-0.0467,-0.0467,-0.0466,0,0,0,0,0,0,0,-0.0351,-0.0353,-0.038,-0.0397,-0.04,-0.0398,-0.0402,-0.0394,-0.0425,-0.0422,-0.0426,-0.0431,-0.0454,-0.045,-0.0451,-0.0436,-0.0467,-0.0467,-0.0466,-0.0466,-0.0432,-0.0431,0,0,0,0,0,0,-0.0354,-0.0352,-0.0379,-0.038,-0.0383,-0.0398,-0.0402,-0.0408,-0.0425,-0.043,-0.0429,-0.0433,-0.0449,-0.0451,-0.0452,-0.0437,-0.0467,-0.0466,-0.0466,-0.0432,-0.0431,-0.0431,0,0,0,0,0,0,-0.0353,-0.0356,-0.0379,-0.0369,-0.0372,-0.0397,-0.0403,-0.0407,-0.0428,-0.0431,-0.0436,-0.0449,-0.0451,-0.0452,-0.0451,-0.0438,-0.0466,-0.0466,-0.0433,-0.0432,-0.0431,-0.039,0,0,0,0,0,0,-0.0352,-0.0356,-0.0366,-0.0369,-0.0373,-0.0381,-0.0402,-0.0407,-0.0428,-0.0434,-0.0449,-0.0452,-0.0452,-0.0452,-0.0451,-0.0438,-0.0465,-0.0434,-0.0433,-0.0431,-0.0392,-0.0388,-0.0384,0,0,0,0,0,-0.035,-0.0355,-0.0366,-0.037,-0.0384,-0.0381,-0.0382,-0.0404,-0.0428,-0.043,-0.0438,-0.0453,-0.0443,-0.0451,-0.045,-0.0436,-0.0435,-0.0433,-0.0431,-0.0394,-0.0388,-0.0384,0,0,0,0,0,0,-0.0353,-0.036,-0.0373,-0.0383,-0.0387,-0.0389,-0.04,-0.0412,-0.042,-0.0434,-0.0441,-0.0443,-0.0436,-0.0442,-0.045,-0.0423,-0.0442,-0.044,-0.0414,-0.0409,-0.0405,-0.0398,-0.0465,0,0,0,0,0,-0.0356,-0.036,-0.0366,-0.0377,-0.0381,-0.0394,-0.04,-0.0412,-0.0417,-0.0425,-0.0432,-0.0436,-0.0423,-0.0423,-0.0417,-0.04,-0.0397,-0.0393,-0.0388,-0.0385,-0.0379,-0.0359,-0.0353,-0.0425,-0.0425,-0.0425,0,0,-0.0361,-0.0367,-0.0371,-0.0378,-0.0387,-0.0379,-0.0402,-0.0414,-0.0405,-0.0424,-0.0422,-0.0424,-0.0416,-0.0395,-0.0393,-0.0402,-0.036,-0.0383,-0.0379,-0.0375,-0.0357,-0.035,-0.0344,-0.0424,-0.0425,-0.0425,0,0,-0.0362,-0.0379,-0.0379,-0.0378,-0.039,-0.0387,-0.0394,-0.0401,-0.0406,-0.0397,-0.0404,-0.0395,-0.039,-0.0369,-0.0359,-0.0327,-0.0339,-0.0336,-0.0306,-0.0288,-0.0281,-0.0276,-0.0253,-0.0245,-0.0333,-0.0333,-0.0333,0,-0.0379,-0.0372,-0.0379,-0.0375,-0.0375,-0.039,-0.0383,-0.0376,-0.0381,-0.0373,-0.0397,-0.0369,-0.0369,-0.0322,-0.0312,-0.0316,-0.0312,-0.0325,-0.0281,-0.0276,-0.0271,-0.0249,-0.0241,-0.033,-0.0331,-0.0331,-0.0331,0,-0.0363,-0.0368,-0.0369,-0.0363,-0.0358,-0.0359,-0.0347,-0.0343,-0.0354,-0.0345,-0.0322,-0.0314,-0.03,-0.0292,-0.0292,-0.0251,-0.0262,-0.0279,-0.0293,-0.0261,-0.024,-0.0233,-0.0327,-0.0328,-0.0329,-0.0329,0,0,-0.0397,-0.0364,-0.0375,-0.0363,-0.0355,-0.0347,-0.0323,-0.0298,-0.0282,-0.0281,-0.0253,-0.0226,-0.0238,-0.0227,-0.0226,-0.0204,-0.0162,-0.0228,-0.0228,-0.0203,-0.012,-0.0077,-0.0066,-0.0178,-0.0177,-0.0176,-0.0116,0,-0.0397,-0.0376,-0.0359,-0.0341,-0.0328,-0.0318,-0.0288,-0.0266,-0.0253,-0.0227,-0.0208,-0.0191,-0.0207,-0.0207,-0.0183,-0.0166,-0.0144,-0.0177,-0.0157,-0.0156,-0.012,-0.0056,-0.0099,-0.0044,-0.0109,-0.0108,-0.0107,0,-0.0396,-0.038,-0.0362,-0.0318,-0.0315,-0.0307,-0.0269,-0.0241,-0.0196,-0.0186,-0.0163,-0.0157,-0.0113,-0.0148,-0.0093,-0.0118,-0.0119,-0.0108,-0.0106,-0.0075,-0.01,-0.0089,-0.0029,-0.0096,-0.0097,-0.0097,-0.0098,0,-0.0409,-0.0384,-0.0368,-0.0359,-0.0313,-0.0309,-0.0289,-0.0245,-0.0212,-0.0174,-0.0151,-0.0109,-0.0092,-0.0074,-0.0049,-0.008,0.0011,-0.0031,0.0011,0.0014,-0.0021,-0.0022,-0.0001,-0.0001,-0.0001,-0.0001,-0.0001,0,-0.0401,-0.0398,-0.0383,-0.0374,-0.0356,-0.0326,-0.0298,-0.0269,-0.0218,-0.0164,-0.0148,-0.0091,-0.0078,-0.0024,-0.002,0.0042,0.0033,0.004,0.0042,-0.0006,-0.0007,-0.0059,-0.0067,0.0001,0.0,0.0,-0.0,0,-0.0409,-0.04,-0.0386,-0.0363,-0.0362,-0.0356,-0.0312,-0.0274,-0.0238,-0.0168,-0.0157,-0.0075,0.0008,0.0041,0.0092,0.0088,0.0133,0.0145,0.0098,0.0095,0.011,0.0103,0.0199,0.0201,0.0203,0.0205,0.0206,0,-0.0399,-0.0395,-0.0394,-0.039,-0.039,-0.0375,-0.035,-0.0302,-0.0249,-0.0141,-0.0093,-0.0004,0.0122,0.023,0.0215,0.0256,0.022,0.0217,0.0157,0.0143,0.0135,0.0126,0.0117,0.0122,0.0123,0.0123,0.0124,0,-0.0378,-0.0401,-0.0383,-0.0386,-0.0383,-0.0344,-0.0306,-0.0263,-0.0181,-0.01,0.004,0.0151,0.0246,0.0299,0.0333,0.0335,0.0211,0.0229,0.0236,0.0087,0.0078,0.0067,0.006,0.0128,0.0127,0.0127,0.0127,0.0127,-0.0375,-0.0367,-0.0362,-0.036,-0.0351,-0.03,-0.0251,-0.0172,-0.0061,0.0102,0.017,0.0351,0.033,0.0433,0.0375,0.0276,0.0297,0.0234,0.0229,0.0225,0.0214,0.021,0.0282,0.0283,0.0283,0.0283,0.0284,0,-0.0342,-0.0337,-0.0327,-0.0308,-0.028,-0.0293,-0.0201,-0.0119,0.0029,0.0204,0.0362,0.0421,0.0486,0.0443,0.029,0.0233,0.0184,0.0206,0.0121,0.0119,0.0118,0.0097,0.0136,0.0135,0.0135,0.0134,0,0,-0.0319,-0.0289,-0.0278,-0.0236,-0.0238,-0.0184,-0.0129,-0.0009,0.0132,0.0356,0.0484,0.0657,0.0578,0.0439,0.0317,0.0207,0.0183,0.0199,0.0326,0.0237,0.0235,0.0146,0.0115,0,0,0,0,0]}],[{"header":{"parameterUnit":"m.s-1","parameterCategory":2,"la1":30.2991,"la2":30.254,"lo1":-89.0895,"lo2":-89.0444,"dy":0.0017,"dx":0.0017,"nx":28,"ny":28,"refTime":"2023-08-16T09:00:00:Z","depth":"4","parameterNumber":2,"parameterNumberName":"U-component_of_CURRENTS"},"data":[0,0,0,0,0,0,0,0,0,0,0,0,0,0,0,0,0,0,0,0,0,0,0,0,0,0,0,0,0,0,0,0,0,0,0,0,0,0,0,0,0,0,0,0,0,0,0,0,0,0,0,0,0,0,0,0,0,0,-0.0431,-0.0431,0,-0.0441,-0.0441,-0.0441,-0.0464,-0.0464,-0.0464,-0.0465,-0.0528,-0.053,-0.0531,0,0,0,0,0,0,0,0,0,0,0,0,0,-0.0427,-0.0427,-0.0431,-0.0431,-0.0431,-0.0441,-0.0441,-0.0441,-0.0464,-0.0464,-0.0464,-0.0465,-0.0528,-0.053,-0.0531,0,0,0,0,0,0,0,0,0,0,0,0,0,-0.0433,-0.0427,-0.0431,-0.0443,-0.0444,-0.0441,-0.0441,-0.0441,-0.0463,-0.0464,-0.0465,-0.0465,-0.0527,-0.0529,-0.0531,-0.0534,0,0,-0.0538,-0.0539,0,0,0,0,0,0,0,0,-0.0433,-0.0433,-0.0441,-0.0442,-0.0443,-0.045,-0.0463,-0.0474,-0.0463,-0.0457,-0.0465,-0.0465,-0.0506,-0.051,-0.0512,-0.0537,-0.0539,-0.0538,-0.0539,-0.054,-0.0541,0,0,0,0,0,0,0,-0.0432,-0.0433,-0.0436,-0.0441,-0.0442,-0.0445,-0.0447,-0.0465,-0.0481,-0.0458,-0.0459,-0.0458,-0.0507,-0.051,-0.0513,-0.054,-0.0538,-0.054,-0.0541,-0.0542,-0.056,-0.0559,0,0,0,0,0,0,-0.0428,-0.0433,-0.0436,-0.0437,-0.0438,-0.0445,-0.0447,-0.0449,-0.0479,-0.0484,-0.0458,-0.0459,-0.0506,-0.0511,-0.0516,-0.0437,-0.054,-0.0542,-0.0543,-0.056,-0.0559,-0.0559,0,0,0,0,0,0,-0.0428,-0.0429,-0.0436,-0.0434,-0.0435,-0.0444,-0.0446,-0.0448,-0.0464,-0.0478,-0.0484,-0.0472,-0.0506,-0.0513,-0.0522,-0.0443,-0.0543,-0.0545,-0.0561,-0.056,-0.0559,-0.0333,0,0,0,0,0,0,-0.0428,-0.0429,-0.0428,-0.0433,-0.0434,-0.044,-0.0446,-0.0448,-0.0461,-0.0463,-0.0492,-0.0498,-0.0507,-0.0518,-0.0524,-0.0448,-0.0546,-0.0562,-0.0561,-0.0559,-0.0341,-0.0324,-0.031,0,0,0,0,0,-0.0428,-0.0425,-0.0428,-0.0428,-0.0434,-0.044,-0.0441,-0.045,-0.0461,-0.0467,-0.0472,-0.0497,-0.0513,-0.0519,-0.0526,-0.0448,-0.0563,-0.0561,-0.0559,-0.0349,-0.0328,-0.031,0,0,0,0,0,0,-0.0423,-0.0427,-0.043,-0.0429,-0.0437,-0.0444,-0.0448,-0.0457,-0.0467,-0.0468,-0.0489,-0.0494,-0.0464,-0.0516,-0.0522,-0.0459,-0.0543,-0.0542,-0.038,-0.0361,-0.0345,-0.0338,-0.0548,0,0,0,0,0,-0.0421,-0.0426,-0.0427,-0.0431,-0.0433,-0.0444,-0.0448,-0.0452,-0.046,-0.0466,-0.0448,-0.046,-0.0461,-0.0461,-0.0469,-0.0445,-0.0545,-0.0407,-0.0391,-0.0376,-0.0381,-0.0518,-0.0515,-0.0553,-0.0553,-0.0553,0,0,-0.0419,-0.0425,-0.0426,-0.0431,-0.0439,-0.0402,-0.0449,-0.0455,-0.0397,-0.0471,-0.0378,-0.0402,-0.0448,-0.0394,-0.0387,-0.0425,-0.0405,-0.0374,-0.036,-0.0374,-0.0516,-0.0512,-0.0509,-0.0552,-0.0552,-0.0552,0,0,-0.0416,-0.0426,-0.0422,-0.0415,-0.042,-0.0399,-0.0402,-0.038,-0.0351,-0.0274,-0.0314,-0.032,-0.0265,-0.0298,-0.031,-0.0237,-0.0319,-0.0213,-0.0112,-0.0243,-0.0241,-0.024,-0.0298,-0.0305,-0.0201,-0.0201,-0.02,0,-0.0408,-0.0389,-0.0423,-0.0404,-0.0363,-0.0388,-0.0334,-0.0308,-0.0272,-0.0245,-0.0214,-0.0196,-0.0221,-0.0232,-0.0161,-0.0196,-0.0258,-0.0162,-0.022,-0.0222,-0.0226,-0.0287,-0.0297,-0.0189,-0.0191,-0.0192,-0.0193,0,-0.0384,-0.0358,-0.0355,-0.0311,-0.0281,-0.0247,-0.0198,-0.0147,-0.0077,-0.005,-0.0009,-0.0038,-0.0039,-0.0029,-0.0037,-0.0066,-0.0093,-0.0181,-0.0257,-0.0208,-0.0275,-0.0289,-0.0174,-0.0178,-0.0181,-0.0184,0,0,-0.0367,-0.0336,-0.0328,-0.0279,-0.0213,-0.0184,-0.0077,-0.0001,0.0032,0.0112,0.0148,0.0195,0.0156,0.0131,0.0078,-0.0003,-0.0026,-0.0052,-0.0064,-0.0088,-0.0247,-0.012,-0.0125,-0.0109,-0.0112,-0.0115,-0.0259,0,-0.0316,-0.0256,-0.023,-0.0116,-0.006,-0.0013,0.0082,0.0136,0.0195,0.0224,0.0178,0.0197,0.0219,0.0219,0.0153,-0.0017,-0.0064,0.0025,-0.0313,-0.0322,-0.02,-0.0139,-0.0124,-0.0271,-0.0275,-0.0277,-0.0279,0,-0.027,-0.0227,-0.0115,-0.0008,0.0021,0.0108,0.0232,0.0301,0.0305,0.034,0.0332,0.0288,0.0225,0.0208,0.0001,0.007,-0.0033,-0.0162,-0.0174,-0.0154,-0.0225,-0.0355,-0.0308,-0.0306,-0.0304,-0.0302,-0.03,0,-0.0232,-0.013,-0.0024,0.0018,0.0128,0.0215,0.029,0.034,0.0367,0.0382,0.0369,0.0303,0.0231,0.0095,-0.0072,-0.0027,-0.036,-0.0369,-0.0355,-0.0347,-0.0522,-0.0523,-0.0523,-0.0523,-0.0523,-0.0522,-0.0522,0,-0.0164,-0.0091,0.0006,0.0058,0.0186,0.026,0.0355,0.0411,0.0414,0.0371,0.0412,0.0317,0.0198,0.0015,-0.0103,-0.0263,-0.0384,-0.0316,-0.0379,-0.0413,-0.0401,-0.0529,-0.0527,-0.0528,-0.0526,-0.0525,-0.0524,0,-0.0152,-0.0089,0.0017,0.0151,0.02,0.0289,0.0383,0.0398,0.044,0.0368,0.0377,0.0296,0.0148,0.0002,-0.0281,-0.031,-0.0498,-0.054,-0.0532,-0.0598,-0.0364,-0.035,-0.046,-0.0457,-0.0454,-0.0452,-0.045,0,-0.0143,-0.0087,0.005,0.0104,0.0178,0.0294,0.0334,0.0411,0.0377,0.0306,0.0218,0.0137,0.0078,-0.0194,-0.033,-0.0479,-0.0499,-0.0562,-0.0422,-0.0309,-0.0361,-0.0351,-0.0341,-0.0445,-0.0445,-0.0444,-0.0443,0,-0.0137,-0.0091,-0.0021,0.0073,0.0156,0.0214,0.026,0.0236,0.0243,0.0263,0.0142,0.0105,-0.006,-0.0166,-0.0266,-0.0413,-0.0491,-0.0532,-0.0536,-0.0405,-0.0293,-0.0345,-0.0338,-0.0434,-0.0435,-0.0436,-0.0437,0,-0.0152,-0.0119,-0.0052,0.0044,0.011,0.0111,0.0156,0.0136,0.0143,0.0096,0.0008,-0.0064,-0.011,-0.0147,-0.0317,-0.0336,-0.0282,-0.0278,-0.0293,-0.0305,-0.018,-0.0011,-0.0106,0,0,0,0,0,-0.0146,-0.0138,-0.0093,-0.001,0.0034,0.0066,0.0076,0.0091,0.007,0.0017,0.0054,-0.006,-0.0105,-0.0179,-0.0158,-0.0269,-0.0331,-0.0248,-0.0345,-0.0382,-0.0392,-0.0256,0,0,0,0,0,0,-0.0159,-0.0129,-0.0119,-0.0091,-0.0059,-0.0035,-0.0032,-0.0045,-0.0061,-0.0057,-0.0081,-0.0029,-0.0094,-0.0099,-0.0152,-0.0164,-0.0214,-0.0262,-0.026,-0.0375,-0.0385,-0.0394,-0.0258,0,0,0,0,0]},{"header":{"parameterUnit":"m.s-1","parameterCategory":2,"la1":30.2991,"la2":30.254,"lo1":-89.0895,"lo2":-89.0444,"dy":0.0017,"dx":0.0017,"nx":28,"ny":28,"refTime":"2023-08-16T09:00:00:Z","depth":"4","parameterNumber":3,"parameterNumberName":"V-component_of_CURRENTS"},"data":[0,0,0,0,0,0,0,0,0,0,0,0,0,0,0,0,0,0,0,0,0,0,0,0,0,0,0,0,0,0,0,0,0,0,0,0,0,0,0,0,0,0,0,0,0,0,0,0,0,0,0,0,0,0,0,0,0,0,0.0468,0.0468,0,0.0452,0.0452,0.0451,0.0475,0.0476,0.0477,0.0478,0.0554,0.0555,0.0556,0,0,0,0,0,0,0,0,0,0,0,0,0,0.0461,0.0461,0.0468,0.0468,0.0468,0.0452,0.0452,0.0451,0.0475,0.0476,0.0478,0.0479,0.0554,0.0555,0.0557,0,0,0,0,0,0,0,0,0,0,0,0,0,0.0454,0.0461,0.0468,0.048,0.0482,0.0452,0.0452,0.0451,0.0475,0.0476,0.0478,0.048,0.0554,0.0555,0.0557,0.0533,0,0,0.0561,0.0562,0,0,0,0,0,0,0,0,0.0454,0.0454,0.0479,0.048,0.0481,0.047,0.0477,0.0484,0.0474,0.0474,0.0479,0.048,0.0535,0.0538,0.0526,0.0537,0.054,0.0561,0.0562,0.0563,0.0563,0,0,0,0,0,0,0,0.0455,0.0454,0.0459,0.0479,0.048,0.0467,0.0468,0.0477,0.0495,0.0474,0.0477,0.0479,0.0536,0.0525,0.0529,0.0541,0.0561,0.0563,0.0564,0.0564,0.0603,0.0603,0,0,0,0,0,0,0.0464,0.0455,0.046,0.0459,0.0474,0.0466,0.0467,0.0469,0.0493,0.0499,0.0478,0.048,0.0521,0.0527,0.0532,0.0553,0.0563,0.0564,0.0565,0.0603,0.0603,0.0603,0,0,0,0,0,0,0.0463,0.0464,0.046,0.0459,0.0458,0.0465,0.0467,0.0468,0.0493,0.0495,0.0502,0.0507,0.0523,0.053,0.0588,0.0555,0.0565,0.0566,0.0603,0.0603,0.0603,0.0567,0,0,0,0,0,0,0.0463,0.0464,0.0474,0.0459,0.0458,0.0455,0.0466,0.0467,0.0491,0.0495,0.0522,0.0528,0.0525,0.0585,0.0589,0.0558,0.0568,0.0603,0.0603,0.0603,0.0568,0.0566,0.0564,0,0,0,0,0,0.0463,0.0462,0.0474,0.0475,0.047,0.0455,0.0453,0.0461,0.0492,0.0493,0.0538,0.0529,0.0588,0.0588,0.0592,0.056,0.0603,0.0603,0.0603,0.0569,0.0566,0.0564,0,0,0,0,0,0,0.0468,0.0464,0.0477,0.0478,0.0477,0.0461,0.0467,0.0481,0.0513,0.0555,0.0552,0.056,0.0581,0.0595,0.0595,0.0573,0.0584,0.0586,0.0557,0.0554,0.0553,0.0537,0.0569,0,0,0,0,0,0.0473,0.048,0.0469,0.0481,0.0478,0.0483,0.0485,0.0511,0.0532,0.0549,0.0582,0.0605,0.0575,0.0593,0.0593,0.0607,0.0604,0.0584,0.0582,0.058,0.0571,0.0524,0.0515,0.0604,0.0604,0.0604,0,0,0.0482,0.0484,0.0489,0.0484,0.0487,0.0501,0.0489,0.0523,0.0548,0.0555,0.0628,0.061,0.0579,0.0576,0.0585,0.0593,0.0565,0.058,0.0578,0.057,0.0523,0.0514,0.0506,0.0605,0.0605,0.0604,0,0,0.0503,0.0504,0.0515,0.0526,0.0553,0.0545,0.0564,0.0593,0.0609,0.0668,0.0647,0.0625,0.0659,0.059,0.0556,0.0551,0.0551,0.0557,0.0538,0.0492,0.0483,0.0475,0.0506,0.0501,0.0561,0.0561,0.056,0,0.052,0.0545,0.0516,0.0545,0.0569,0.0572,0.0609,0.0606,0.0667,0.0654,0.0709,0.065,0.0643,0.0527,0.0525,0.0538,0.0551,0.0543,0.0486,0.0478,0.047,0.0503,0.0498,0.0559,0.0559,0.0559,0.0559,0,0.0545,0.0593,0.0604,0.0638,0.0641,0.069,0.0682,0.0704,0.074,0.0722,0.0675,0.065,0.0602,0.057,0.0552,0.0458,0.0501,0.0481,0.0484,0.0458,0.0496,0.0492,0.0556,0.0557,0.0557,0.0558,0,0,0.0543,0.0608,0.063,0.0675,0.0719,0.0723,0.0738,0.0706,0.0675,0.0713,0.0648,0.0581,0.0553,0.0512,0.0458,0.0408,0.0381,0.0436,0.0435,0.0456,0.0345,0.0284,0.0275,0.0354,0.0352,0.035,0.0409,0,0.0593,0.0672,0.0685,0.0775,0.0813,0.0813,0.0796,0.0771,0.0737,0.0676,0.0581,0.0527,0.0528,0.05,0.044,0.0362,0.0362,0.0371,0.0377,0.0378,0.0315,0.0262,0.0344,0.0406,0.0405,0.0404,0.0403,0,0.062,0.0681,0.0789,0.0835,0.0843,0.0898,0.085,0.0839,0.0705,0.0673,0.0577,0.0506,0.0396,0.0429,0.0325,0.0339,0.0367,0.0334,0.0336,0.0279,0.0304,0.0427,0.0395,0.0396,0.0396,0.0397,0.0397,0,0.0628,0.074,0.0838,0.088,0.0927,0.0967,0.0965,0.0861,0.0805,0.0685,0.0618,0.048,0.0421,0.0385,0.0343,0.0346,0.0252,0.0249,0.0236,0.0237,0.0295,0.0302,0.0234,0.0234,0.0234,0.0234,0.0234,0,0.0653,0.0732,0.0882,0.095,0.1017,0.1031,0.1026,0.0973,0.0861,0.072,0.0646,0.0477,0.0409,0.0324,0.0327,0.0254,0.0264,0.0218,0.0217,0.0289,0.0294,0.0295,0.0301,0.0236,0.0236,0.0235,0.0235,0,0.0635,0.0736,0.0871,0.1006,0.1045,0.1103,0.1104,0.1036,0.0962,0.0777,0.0748,0.0506,0.0347,0.0316,0.0226,0.0226,0.0178,0.0192,0.0318,0.0328,0.0216,0.022,0.0145,0.0143,0.0141,0.0139,0.0138,0,0.0618,0.0715,0.0934,0.1002,0.1098,0.1172,0.116,0.1112,0.0993,0.0724,0.0585,0.0415,0.0254,0.0115,0.0067,0.0104,0.0119,0.0179,0.0139,0.0185,0.0193,0.02,0.0207,0.0134,0.0134,0.0133,0.0133,0,0.0611,0.0743,0.0839,0.1016,0.1105,0.1116,0.1094,0.0972,0.0806,0.0785,0.0442,0.0309,0.0108,-0.0006,0.0075,0.0074,0.0148,0.0158,0.0162,0.0125,0.0171,0.0183,0.0192,0.0126,0.0127,0.0128,0.0128,0,0.0618,0.0675,0.0848,0.0966,0.1075,0.1001,0.0975,0.0821,0.0719,0.0437,0.0302,0.0112,0.0034,-0.0029,-0.0024,0.0022,0.0009,0.0073,0.0082,0.0089,0.0032,0.008,-0.0015,0,0,0,0,0,0.0613,0.0643,0.075,0.0865,0.0975,0.1029,0.0885,0.081,0.0626,0.0415,0.0373,0.0186,0.0058,-0.006,-0.0028,-0.0095,0.0008,-0.006,0.0087,0.0088,0.0096,0.0027,0,0,0,0,0,0,0.0594,0.0696,0.0715,0.0779,0.0843,0.0898,0.079,0.0648,0.0497,0.0347,0.0273,0.0292,0.0168,0.0127,0.0028,0.0016,0.0121,-0.0087,-0.0086,0.0083,0.009,0.0097,0.0029,0,0,0,0,0]}]]